This demonstration page uses our WeatherBlox Daily Observations layout. Learn more.

38.88101, -77.10428

Hourly Observations for March 1, 2016

Temp ( °F °C ) Dew Point ( °F °C ) Humidity (%) Winds ( mph kmh ) Pressure ( in mb ) Visibility ( mi km ) Precip ( " mm )
12:52 am 00:52 Clear 45 7 36 2 71 71 Calm 30.06 1018 10 16.09344 0 0
1:52 am 01:52 Clear 45 7 37 3 76 76 Calm 30.06 1018 10 16.09344 0 0
2:52 am 02:52 Clear 43 6 37 3 81 81 N 3 6 30.09 1019 10 16.09344 0 0
3:52 am 03:52 Clear 43 6 37 3 81 81 Calm 30.09 1019 10 16.09344 0 0
4:52 am 04:52 Clear 43 6 34 1 71 71 Calm 30.12 1020 10 16.09344 0 0
5:52 am 05:52 Mostly Clear 39 4 36 2 87 87 Calm 30.12 1020 10 16.09344 0 0
6:52 am 06:52 Mostly Sunny 41 5 34 1 76 76 SSW 3 6 30.12 1020 10 16.09344 0 0
7:52 am 07:52 Mostly Sunny 45 7 37 3 76 76 Calm 30.12 1020 10 16.09344 0 0
8:52 am 08:52 Mostly Sunny 48 9 36 2 62 62 SSW 6 9 30.15 1021 10 16.09344 0 0
9:52 am 09:52 Mostly Sunny 55 13 32 0 41 41 S 6 9 30.12 1020 10 16.09344 0 0
10:52 am 10:52 Mostly Sunny 61 16 32 0 34 34 S 13 20 30.09 1019 10 16.09344 0 0
11:52 am 11:52 Mostly Sunny 63 17 30 -1 30 30 S 17 28 30.06 1018 10 16.09344 0 0
12:52 pm 12:52 Partly Cloudy 63 17 34 1 34 34 S 13 20 30 1016 10 16.09344 0 0
1:52 pm 13:52 Partly Cloudy 64 18 32 0 30 30 SSE 14 22 29.94 1014 10 16.09344 0 0
2:52 pm 14:52 Mostly Cloudy 64 18 34 1 32 32 SSE 15 24 29.91 1013 10 16.09344 0 0
3:52 pm 15:52 Mostly Cloudy 61 16 34 1 36 36 SE 14 22 29.88 1012 10 16.09344 0 0
4:52 pm 16:52 Mostly Cloudy 61 16 34 1 36 36 SSE 15 24 29.83 1010 10 16.09344 0 0
5:52 pm 17:52 Mostly Cloudy 57 14 39 4 51 51 SSE 9 15 29.8 1009 10 16.09344 0 0
6:52 pm 18:52 Clear 55 13 32 0 41 41 N 5 7 29.97 1015 10 16.09344 0 0
7:52 pm 19:52 Mostly Cloudy 55 13 45 7 67 67 S 12 19 29.71 1006 10 16.09344 0 0
8:52 pm 20:52 Mostly Cloudy 57 14 45 7 63 63 S 14 22 29.65 1004 10 16.09344 0 0
9:52 pm 21:52 Mostly Cloudy 57 14 45 7 63 63 S 18 30 29.62 1003 10 16.09344 0 0
10:52 pm 22:52 Cloudy 61 16 45 7 55 55 S 17 28 29.59 1002 10 16.09344 0 0
11:52 pm 23:52 Cloudy with Light Rain 59 15 48 9 68 68 SSW 15 24 29.56 1001 10 16.09344 0.001 0.001

Powered by AerisWeather